AKDT,Max TemperatureF,Mean TemperatureF,Min TemperatureF,Max Dew PointF,MeanDew PointF,Min DewpointF,Max Humidity, Mean Humidity, Min Humidity, Max Sea Level PressureIn, Mean Sea Level PressureIn, Min Sea Level PressureIn, Max VisibilityMiles, Mean VisibilityMiles, Min VisibilityMiles, Max Wind SpeedMPH, Mean Wind SpeedMPH, Max Gust SpeedMPH,PrecipitationIn, CloudCover, Events, WindDirDegrees
2013-3-1,45,41,37,38,36,33,0,0,0,30.05,30.01,29.98,10,9,2,13,7,17,0.24,8,Rain,129
2013-3-2,43,39,35,38,36,32,0,0,0,30.18,30.01,29.95,10,9,2,15,6,21,0.47,7,Rain-Snow,99
2013-3-3,42,36,30,36,33,30,0,0,0,30.42,30.34,30.20,10,9,1,7,1,10,0.00,6,,344
2013-3-4,48,40,31,34,28,18,0,0,0,30.39,30.30,30.17,10,9,1,12,5,16,0.00,2,,344
2013-3-5,50,41,32,30,24,18,0,0,0,30.17,30.01,29.91,10,10,10,12,5,16,0.00,0,,340
2013-3-6,45,35,25,28,25,22,0,0,0,29.93,29.89,29.86,10,10,10,13,4,16,0.00,0,,325
2013-3-7,46,37,27,28,25,19,0,0,0,30.11,30.03,29.94,10,10,10,7,2,9,0.00,0,,314
2013-3-8,42,35,27,39,34,25,0,0,0,30.19,30.16,30.10,10,10,5,13,3,16,0.03,7,Rain,130
2013-3-9,43,41,39,39,36,32,0,0,0,30.38,30.17,30.06,10,9,3,28,10,40,0.71,7,Rain,151
2013-3-10,42,37,31,36,33,31,0,0,0,30.43,30.41,30.39,10,10,2,10,2,15,0.05,7,Rain,218
2013-3-11,42,38,34,36,33,30,0,0,0,30.42,30.25,29.99,10,9,2,13,6,18,0.16,7,Rain-Snow,126
2013-3-12,43,38,33,36,30,21,0,0,0,29.95,29.75,29.69,10,10,9,14,3,16,0.03,8,Rain,125
2013-3-13,43,37,31,33,30,24,0,0,0,29.89,29.83,29.73,10,10,8,12,4,16,0.01,7,Snow,118
2013-3-14,41,39,36,38,35,27,0,0,0,29.86,29.74,29.68,10,10,10,10,4,15,0.16,8,Rain,342
2013-3-15,44,38,31,43,38,31,0,0,0,30.00,29.88,29.82,10,7,2,20,7,25,1.04,7,Rain,131
2013-3-16,45,37,28,34,31,26,0,0,0,30.01,29.95,29.91,10,10,10,9,2,12,T,4,Rain,301
2013-3-17,44,37,30,32,30,25,0,0,0,30.03,29.99,29.94,10,10,10,10,4,14,T,5,Rain-Snow,319
2013-3-18,44,37,30,34,30,25,0,0,0,30.08,30.03,29.98,10,9,2,14,5,25,0.10,7,Rain-Snow,219
2013-3-19,41,37,33,36,33,30,0,0,0,29.98,29.69,29.49,10,7,1,22,7,36,0.36,8,Rain-Snow,163
2013-3-20,41,35,28,32,28,23,0,0,0,29.78,29.50,29.39,10,8,2,20,8,26,0.02,5,Snow,331
2013-3-21,42,36,29,34,29,23,0,0,0,30.22,30.00,29.79,10,8,2,16,4,23,0.04,6,Snow,271
2013-3-22,43,37,30,30,27,25,0,0,0,30.38,30.33,30.22,10,10,10,13,4,18,0.00,4,,316
2013-3-23,45,41,36,29,26,20,0,0,0,30.29,30.23,30.14,10,10,10,15,7,23,0.00,7,,114
2013-3-24,50,46,41,38,34,30,0,0,0,30.13,30.03,29.93,10,10,10,14,7,23,T,8,Rain,113
2013-3-25,44,43,42,43,41,38,0,0,0,29.99,29.91,29.85,10,7,2,21,10,30,0.56,8,Rain,142
2013-3-26,47,41,35,39,34,27,0,0,0,30.13,30.06,29.99,10,10,10,14,4,18,0.00,4,,328
2013-3-27,47,41,34,29,27,26,0,0,0,30.13,30.12,30.11,10,10,10,15,6,18,0.00,3,,331
2013-3-28,48,40,32,32,27,23,0,0,0,30.20,30.16,30.12,10,10,10,12,6,16,0.00,1,,327
2013-3-29,50,40,30,35,30,24,0,0,0,30.38,30.30,30.21,10,10,10,6,2,10,0.00,4,,264
2013-3-30,44,41,37,39,37,32,0,0,0,30.42,30.39,30.35,10,10,10,10,2,13,0.02,7,Rain,144
2013-3-31,53,46,38,39,38,37,0,0,0,30.34,30.20,30.01,10,10,10,13,6,18,0.00,4,,324